Change the Weather History Date:

Thursday, December 18, 2014

  Actual Average Record
Temperature  
Mean Temperature 16 °F 17 °F  
Max Temperature 26 °F 29 °F 55 °F (1979)
Min Temperature 5 °F 4 °F -32 °F (1924)
Degree Days  
Heating Degree Days 49 48  
Month to date heating degree days 666 849  
Since 1 July heating degree days 2996 3339  
Cooling Degree Days 0 0  
Month to date cooling degree days 0 0  
Year to date cooling degree days 78 81  
Moisture  
Dew Point 13 °F    
Average Humidity 84    
Maximum Humidity 92    
Minimum Humidity 75    
Precipitation  
Precipitation T in 0.02 in 0.24 in (1925)
Month to date precipitation 0.20 0.30  
Year to date precipitation 14.47 12.56  
Sea Level Pressure  
Sea Level Pressure 30.19 in    
Wind  
Wind Speed 1 mph (SE)    
Max Wind Speed 7 mph    
Max Gust Speed 9 mph    
Visibility 10 miles    
Events Snow    
T = Trace of Precipitation, MM = Missing Value Source: NWS Daily Summary

Daily Weather History Graph

Daily Weather History Graph

Search for Another Location

Airport or City:

Trip Planner

Search our weather history database for the weather conditions in past years. The results will help you decide how hot, cold, wet, or windy it might be!

Date:

Astronomy

Dec. 18, 2014 Rise Set
Actual Time 8:07 AM MST 4:46 PM MST
Civil Twilight 7:32 AM MST 5:20 PM MST
Nautical Twilight 6:54 AM MST 5:58 PM MST
Astronomical Twilight 6:18 AM MST 6:35 PM MST
Moon 4:15 AM MST (12/18) 2:37 PM MST (12/18)
Length of Visible Light 9h 48m
Length of Day
8h 39m
Waning Crescent, 13% of the Moon is Illuminated
Dec 18
Waning Crescent
Dec 21
New
Dec 28
First Quarter
Jan 4
Full
Jan 13
Last Quarter

Hourly Weather History & Observations

Time (MST) Temp. Windchill Dew Point Humidity Pressure Visibility Wind Dir Wind Speed Gust Speed Precip Events Conditions
12:53 AM 5.0 °F -4.1 °F 1.9 °F 87% 30.16 in 10.0 mi ESE 4.6 mph - N/A   Partly Cloudy
1:53 AM 7.0 °F - 3.0 °F 84% 30.12 in 7.0 mi Calm Calm - N/A   Clear
2:53 AM 6.1 °F -0.9 °F 1.9 °F 83% 30.17 in 10.0 mi South 3.5 mph - N/A   Clear
3:53 AM 9.0 °F - 5.0 °F 84% 30.15 in 10.0 mi Calm Calm - N/A   Overcast
4:53 AM 8.6 °F - 6.8 °F 92% 29.98 in 10.0 mi Calm Calm - N/A   Overcast
5:53 AM 9.0 °F - 6.1 °F 88% 30.21 in 10.0 mi Calm Calm - N/A   Mostly Cloudy
6:53 AM 9.0 °F - 5.0 °F 84% 30.24 in 10.0 mi Calm Calm - N/A   Mostly Cloudy
7:53 AM 9.0 °F - 5.0 °F 84% 30.25 in 10.0 mi Calm Calm - N/A   Overcast
8:53 AM 10.9 °F - 8.1 °F 88% 30.25 in 10.0 mi Calm Calm - N/A   Overcast
9:53 AM 12.9 °F 6.9 °F 10.0 °F 88% 30.26 in 10.0 mi East 3.5 mph - N/A   Overcast
10:53 AM 18.0 °F - 15.1 °F 88% 30.26 in 10.0 mi Calm Calm - N/A   Mostly Cloudy
11:53 AM 19.9 °F - 16.0 °F 85% 30.23 in 9.0 mi Calm Calm - 0.00 in Snow Light Snow
12:53 PM 21.9 °F - 18.0 °F 85% 30.22 in 10.0 mi Calm Calm - 0.00 in   Overcast
1:53 PM 24.1 °F - 19.0 °F 81% 30.20 in 10.0 mi Calm Calm - N/A   Overcast
2:53 PM 25.0 °F - 19.0 °F 78% 30.19 in 10.0 mi Calm Calm - N/A   Overcast
3:53 PM 26.1 °F - 19.9 °F 78% 30.19 in 10.0 mi Calm Calm - N/A   Overcast
4:53 PM 24.1 °F - 19.9 °F 84% 30.19 in 10.0 mi Calm Calm - N/A   Overcast
5:53 PM 24.1 °F - 19.9 °F 84% 30.19 in 10.0 mi Calm Calm - N/A   Overcast
6:53 PM 23.0 °F - 19.0 °F 85% 30.20 in 10.0 mi Calm Calm - N/A   Overcast
7:53 PM 24.1 °F - 19.9 °F 84% 30.19 in 10.0 mi Calm Calm - N/A   Overcast
8:53 PM 24.1 °F - 19.0 °F 81% 30.18 in 10.0 mi Calm Calm - N/A   Overcast
9:53 PM 23.0 °F - 19.0 °F 85% 30.18 in 9.0 mi Calm Calm - N/A   Overcast
10:53 PM 23.0 °F 18.4 °F 19.0 °F 85% 30.15 in 10.0 mi SE 3.5 mph - N/A   Overcast
11:53 PM 19.0 °F 12.3 °F 15.1 °F 85% 30.16 in 10.0 mi SE 4.6 mph - N/A   Mostly Cloudy